COSMOS 2464 (736) (37139 NORAD) Tracking and Keplerian Element Data

This shows tracking and keplerian element data for the satellite.

Feedback or suggestion? Click here.




ElementValue
Catalog37139
NameCOSMOS 2464 (736)
Epoch Orbit9507
Epoch Day324.46463356
Epoch Year2022
RAAN235.102
Inclination63.9625
Eccentricity0.002997
Argument of Perigee9.4118
Mean Anonmoly165.2276
Mean Motion2.13100873
Decay Rate1.1E-07
L11 37139U 10041C 22324.46463356 .00000011 00000+0 00000+0 0 9999
L22 37139 63.9625 235.1020 0029970 9.4118 165.2276 2.13100873 95074



Live tracking and technical data element details for COSMOS 2464 (736) (NORAD 37139). COSMOS 2464 (736) can be tracked NOW for your location showing map with azimuth and elevation plus other details from your city location.







IsCatalogInMostPopularTable: catalog: 37139, numindb: 398
Update: records affected: 1



GetName: 37139 COSMOS 2464 (736)

Hit Count: updated at: Sat, 07 Mar 2026 05:59:15 GMT